Погода в Шепетовке

Погода в Шепетовке : погода сейчас, прогноз погоды и архив. Всё, что Вы хотите узнать о погоде в Шепетовке!

Хотите узнать прогноз погоды в Шепетовке? Тогда Вам сюда: Погода в Шепетовке

Поиск расширенной информации на нашем сайте:

Другие новости

Новости СМИ2

Главная страница сайта

Новости сайта

03.07.2017

Напоминаем, что на нашем специализированном сайте Метеоцентр.Азия вы можете получить высокодетализированные автоматические прогнозы погоды по пунктам России, СНГ и мира в авиационном формате (включающие направление и скорость ветра, видимость, явления погоды, количество и форму облачности, нижнюю и верхнюю границу облачности).

Рекомендуем: татарское изготовление кухонь по цене интернет магазина

Погода в Шепетовке - сегодня

Время (UTC), дата Ветер
(°,м/с) 
Видим.   Явления Облачность Т
(°С)
Тd
(°С)
f(%) Тe
(°С)
Pmin
(гПа)
dP
(гПа)
Po
(мм)
O2
(г/м3)
Тmin Tmax R s Состояние
почвы
21 21.04.18 320 (СЗ) н/о    ясно 
+16 -0.3 33 +16  1011.6  1.9  734  280           
00 22.04.18 тихо ()   н/о    ясно 
+9.7 -0.5 49 +10  1013.6  1.2  735  286           
06 22.04.18 340 (С) 20000 м    ясно 
+10.7 +3.5 61 +10  1014.9  0.7  736  285  +6.2         
09 22.04.18 340 (С) 20000 м    ясно 
+14.3 +0.3 38 +14  1014.3  -0.2  736  282           
12 22.04.18 340 (С) 20000 м    ясно 
+17.7 -0.9 28 +18  1012.5  -1.4  735  278           
15 22.04.18 290 (З) 20000 м    3/0 верхняя 
[Ci fib]
+17.8 -3.5 23 +17  1011.7  -0.7  735  278           
18 22.04.18 270 (З) н/о    4/0 верхняя 
[Ci fib]
+12.3 -0.6 41 +12  1013.2  0.8  735  283    +18.7       
21 22.04.18 270 (З) н/о    4/0 верхняя 
[Ci fib]
+7 +1.9 70 +6  1014.4  0.6  736  289           
00 23.04.18 270 (З) н/о    ясно 
+5 +3.1 87 +5  1014.6  736  291           
03 23.04.18 270 (З) 10 км    3/0 верхняя 
[Ci fib]
+3.8 +2.3 90 +3  1015.1  0.3  736  292           
06 23.04.18 320 (СЗ) 10 км    ясно 
+10.6 +3.6 62 +11  1014.8  0.5  736  285  +3.7         
09 23.04.18 320 (СЗ) 20000 м    3/1 600 м верхняя 
[Cu hum|Ci fib]
+16.8 +0.4 33 +18  1014.3  0.2  736  279           
12 23.04.18 270 (З) 20000 м    6/3 600 м верхняя 
[Cu hum|Ci fib]
+20.2 +0.6 27 +20  1013.1  -0.8  736  276           
15 23.04.18 270 (З) 20000 м    6/0 верхняя 
[Ci]
+19 -2.2 24 +20  1012.3  -0.9  735  277           
18 23.04.18 тихо ()   10 км    3/0 верхняя 
[Ci fib]
+13.6 +0.1 40 +14  1012.9  735  282    +20.7       
21 23.04.18 тихо ()   н/о    3/0 верхняя 
[Ci fib]
+10.2 +2.9 60 +10  1012.9  -0.4  735  285           
00 24.04.18 тихо ()   н/о    4/0 средняя, верхняя 
[Ac trans|Ci fib]
+8.9 +3.4 68 +9  1011.4  -1.6  734  286           
03 24.04.18 тихо ()   10 км  в посл. час ливневой дождь  8/4 600 м кучево-дожд., средняя 
[Cb cap|Ac As]
+10 +8.8 92 +10  1011.2  734  284           
06 24.04.18 230 (ЮЗ) 10 км  {ливн. осадки}  8/0 средняя 
[Ac As]
+11.9 +10 88 +14  1011.6  0.6  734  282  +7.9       
09 24.04.18 270 (З) 20000 м    8/8 600 м 
[Cu med, cong]
+16 +12.6 80 +22  1011.9  0.8  735  277           
12 24.04.18 270 (З) 20000 м    6/6 600 м 
[Cu hum]
+16.8 +10.3 65 +20  1012.4  0.5  735  277           
15 24.04.18 270 (З) 20000 м    6/4 600 м верхняя 
[Cu med, cong|Ci fib]
+18.2 +7.2 49 +19  1011.5  -0.7  735  276           
18 24.04.18 270 (З) 10 км    4/0 верхняя 
[Ci fib]
+12.4 +6.4 67 +13  1013.2  735  282    +19.5       
21 24.04.18 тихо ()   н/о    ясно 
+9.9 +7 82 +10  1013.8  0.3  736  285           
00 25.04.18 180 (Ю) н/о    6/0 средняя, верхняя 
[As trans|Cs]
+9.9 +8.3 90 +10  1013  -0.8  735  284           
Время (UTC), дата Ветер
(°,м/с) 
Видим.   Явления Облачность Т
(°С)
Тd
(°С)
f(%) Тe
(°С)
Pmin
(гПа)
dP
(гПа)
Po
(мм)
O2
(г/м3)
Тmin Tmax R s Состояние
почвы

Для получения пояснительной информации подведите курсор к названию столбца.

ПОГОДА в Шепетовке - архив

Всё, что Вы хотите узнать о погоде в Шепетовке - удобно и подробно!

Выберите нужную дату (начиная с 1 января 2015* года) и нажмите кнопку "Найти".
Будут отображены архивные сводки погоды по пункту Шепетовка, начиная с указанной даты.


Отображать данные в формате CSV (для использования в таблицах Excel)


Внимание! Наш архив погоды предназначен исключительно для личного некоммерческого использования в познавательных целях. Если Вам необходимы официальные справки о состоянии погоды (для производственных, юридических, коммерческих и т.п. целей), обращайтесь в органы Росгидромета.

*Примечание: данная дата относится к архиву по метеостанциям СССР (Россия, СНГ, Балтия).
Архив по метеостанциям Зарубежной Европы и Азии (кроме Китая) хранится 10 дней, по другим регионам земного шара (Китай, Африка, Америка, Австралия, Океания) - 1 день.

Шепетовка - район местоположения метеостанции


Название, широта, долгота, высота метеостанции:
Шепетовка 50.2°ш. 27°д. 278 м над ур. моря [Украина]

Дополнительная информация

В oтличие oт бoльшинства пoгoдных сайтoв мы публикуем пoдрoбную метеoинфoрмацию в детальнoм прoфессиoнальнoм фoрмате.

Характеристики температуры и влажнoсти вoздуха измеряются на высoте 2 м в тени вдали oт зданий и деревьев.
Скoрoсть ветра измеряется на высoте 10 м (на урoвне рoста челoвека скoрoсть ветра ниже в 1.5-2 раза). Если метеoстанция нахoдится в гoрoде или в лесу, тo скoрoсть ветра занижена на 2-4 м/с пo сравнению с oткрытым местoм. Скoрoсть ветра над акватoриями крупных рек и oзёр, а также на вершинах хoлмoв на 2-5 м/с выше, чем в oбычных услoвиях.
Атмoсфернoе давление в разных тoчках местнoсти мoжет значительнo oтличаться oт давления на метеoстанции, в зависимoсти oт услoвий рельефа (при пoдъёме на 10 м давление пoнижается примернo на 1 мм рт.ст.).